�������C�����ː����j�^�v���󋵏��
Date,Time,Cs137(Bq/L),Cs134(Bq/L),�S��(Bq/L)
2018/01/24,00:00,0.55,ND,ND
2018/01/24,00:10,0.54,ND,ND
2018/01/24,00:20,0.55,ND,ND
2018/01/24,00:30,0.51,ND,ND
2018/01/24,00:40,0.57,ND,ND
2018/01/24,00:50,0.58,ND,ND
2018/01/24,01:00,0.58,ND,ND
2018/01/24,01:10,0.58,ND,ND
2018/01/24,01:20,0.57,ND,11
2018/01/24,01:30,0.56,ND,12
2018/01/24,01:40,0.56,ND,13
2018/01/24,01:50,0.58,ND,15
2018/01/24,02:00,0.57,ND,13
2018/01/24,02:10,0.57,ND,14
2018/01/24,02:20,0.58,ND,11
2018/01/24,02:30,0.58,ND,13
2018/01/24,02:40,0.58,ND,16
2018/01/24,02:50,0.57,ND,16
2018/01/24,03:00,0.58,ND,16
2018/01/24,03:10,0.59,ND,15
2018/01/24,03:20,0.59,ND,17
2018/01/24,03:30,0.59,ND,15
2018/01/24,03:40,0.59,ND,13
2018/01/24,03:50,0.59,ND,13
2018/01/24,04:00,0.60,ND,15
2018/01/24,04:10,0.57,ND,13
2018/01/24,04:20,0.58,ND,14
2018/01/24,04:30,0.61,ND,14
2018/01/24,04:40,0.60,ND,15
2018/01/24,04:50,0.59,ND,14
2018/01/24,05:00,0.58,ND,12
2018/01/24,05:10,0.59,ND,14
2018/01/24,05:20,0.57,ND,13
2018/01/24,05:30,0.54,ND,9.9
2018/01/24,05:40,0.50,ND,ND
2018/01/24,05:50,0.54,ND,ND
2018/01/24,06:00,0.54,ND,ND
2018/01/24,06:10,0.53,ND,ND
2018/01/24,06:20,0.48,ND,ND
2018/01/24,06:30,0.53,ND,10
2018/01/24,06:40,0.55,ND,12
2018/01/24,06:50,0.55,ND,14
2018/01/24,07:00,0.45,0.041,13
2018/01/24,07:10,0.45,0.050,16
2018/01/24,07:20,0.46,0.050,17
2018/01/24,07:30,0.48,0.039,15
2018/01/24,07:40,0.48,0.040,14
2018/01/24,07:50,0.51,0.044,13
2018/01/24,08:00,0.61,ND,14
2018/01/24,08:10,0.62,ND,12
2018/01/24,08:20,0.64,ND,ND
2018/01/24,08:30,0.64,ND,12
2018/01/24,08:40,0.64,ND,12
2018/01/24,08:50,0.62,ND,13
2018/01/24,09:00,0.64,ND,11
2018/01/24,09:10,0.63,ND,13
2018/01/24,09:20,0.64,ND,14
2018/01/24,09:30,0.64,ND,12
2018/01/24,09:40,0.64,ND,14
2018/01/24,09:50,0.64,ND,16
2018/01/24,10:00,0.63,ND,15
2018/01/24,10:10,0.65,ND,15
2018/01/24,10:20,0.62,ND,17
2018/01/24,10:30,0.62,ND,17
2018/01/24,10:40,0.64,ND,14
2018/01/24,10:50,0.67,ND,12
2018/01/24,11:00,0.59,0.026,13
2018/01/24,11:10,0.62,ND,12
2018/01/24,11:20,0.64,ND,13
2018/01/24,11:30,0.67,ND,14
2018/01/24,11:40,0.68,ND,17
2018/01/24,11:50,0.67,ND,16
2018/01/24,12:00,0.67,ND,17
2018/01/24,12:10,0.69,ND,16
2018/01/24,12:20,0.70,ND,14
2018/01/24,12:30,0.72,ND,16
2018/01/24,12:40,0.74,ND,15
2018/01/24,12:50,0.72,0.028,16
2018/01/24,13:00,0.77,ND,15
2018/01/24,13:10,0.62,0.065,15
2018/01/24,13:20,0.64,0.065,16
2018/01/24,13:30,0.64,0.062,12
2018/01/24,13:40,0.62,0.057,14
2018/01/24,13:50,0.64,0.047,13
2018/01/24,14:00,0.66,0.044,12
2018/01/24,14:10,0.78,ND,15
2018/01/24,14:20,0.74,ND,14
2018/01/24,14:30,0.75,ND,14
2018/01/24,14:40,0.72,0.028,11
2018/01/24,14:50,0.70,0.033,12
2018/01/24,15:00,0.68,0.047,14
2018/01/24,15:10,0.60,0.063,12
2018/01/24,15:20,0.71,0.031,12
2018/01/24,15:30,0.76,ND,10
2018/01/24,15:40,0.68,0.043,10
2018/01/24,15:50,0.67,0.037,11
2018/01/24,16:00,0.67,0.028,ND
2018/01/24,16:10,0.65,0.041,ND
2018/01/24,16:20,0.63,0.054,ND
2018/01/24,16:30,0.63,0.055,12
2018/01/24,16:40,0.73,ND,11
2018/01/24,16:50,0.69,0.031,11
2018/01/24,17:00,0.68,0.026,11
2018/01/24,17:10,0.73,ND,14
2018/01/24,17:20,0.71,ND,13
2018/01/24,17:30,0.58,0.045,8.9
2018/01/24,17:40,0.57,0.044,10
2018/01/24,17:50,0.59,0.036,12
2018/01/24,18:00,0.59,0.040,13
2018/01/24,18:10,0.59,0.042,13
2018/01/24,18:20,0.58,0.052,15
2018/01/24,18:30,0.58,0.047,16
2018/01/24,18:40,0.69,ND,14
2018/01/24,18:50,0.57,0.049,13
2018/01/24,19:00,0.69,ND,13
2018/01/24,19:10,0.59,0.034,10
2018/01/24,19:20,0.70,ND,10
2018/01/24,19:30,0.70,ND,9.9
2018/01/24,19:40,0.72,ND,14
2018/01/24,19:50,0.72,ND,14
2018/01/24,20:00,0.74,ND,15
2018/01/24,20:10,0.75,ND,14
2018/01/24,20:20,0.76,ND,13
2018/01/24,20:30,0.76,ND,15
2018/01/24,20:40,0.78,ND,11
2018/01/24,20:50,0.79,ND,10
2018/01/24,21:00,0.78,ND,9.5
2018/01/24,21:10,0.77,ND,11
2018/01/24,21:20,0.76,ND,12
2018/01/24,21:30,0.73,0.028,11
2018/01/24,21:40,0.73,0.028,14
2018/01/24,21:50,0.76,ND,12
2018/01/24,22:00,0.63,0.053,12
2018/01/24,22:10,0.61,0.063,13
2018/01/24,22:20,0.61,0.051,12
2018/01/24,22:30,0.70,ND,9.9
2018/01/24,22:40,0.67,ND,ND
2018/01/24,22:50,0.66,ND,12
2018/01/24,23:00,0.67,ND,12
2018/01/24,23:10,0.67,ND,10
2018/01/24,23:20,0.70,ND,10
2018/01/24,23:30,0.72,ND,11
2018/01/24,23:40,0.76,ND,11
2018/01/24,23:50,0.75,ND,9.0
